Time,TemperatureF,DewpointF,PressureIn,WindDirection,WindDirectionDegrees,WindSpeedMPH,WindSpeedGustMPH,Humidity,HourlyPrecipIn,Conditions,Clouds,dailyrainin,SolarRadiationWatts/m^2,SoftwareType,DateUTC
2013-02-08 00:01:00,25.0,25.0,-100.00,WNW,286,0.0,0.0,100,0.00,,,0.00,0.000000,,2013-02-08 08:01:00,
2013-02-08 00:02:00,23.0,23.0,-100.00,East,85,0.0,0.0,100,0.00,,,0.00,0.000000,,2013-02-08 08:02:00,
2013-02-08 00:22:00,23.0,23.0,-100.00,East,85,0.0,0.0,100,0.00,,,0.00,0.000000,,2013-02-08 08:22:00,
2013-02-08 00:32:00,23.0,23.0,-100.00,East,85,0.0,0.0,100,0.00,,,0.00,0.000000,,2013-02-08 08:32:00,
2013-02-08 00:42:00,23.0,23.0,-100.00,East,85,0.0,0.0,100,0.00,,,0.00,0.000000,,2013-02-08 08:42:00,
2013-02-08 00:52:00,23.0,23.0,-100.00,East,85,0.0,0.0,100,0.00,,,0.00,0.000000,,2013-02-08 08:52:00,
2013-02-08 01:22:00,21.0,21.0,-100.00,ESE,110,0.0,0.0,100,0.00,,,0.00,0.000000,,2013-02-08 09:22:00,
2013-02-08 01:32:00,21.0,21.0,-100.00,ESE,110,0.0,0.0,100,0.00,,,0.00,0.000000,,2013-02-08 09:32:00,
2013-02-08 01:42:00,21.0,21.0,-100.00,ESE,110,0.0,0.0,100,0.00,,,0.00,0.000000,,2013-02-08 09:42:00,
2013-02-08 01:52:00,21.0,21.0,-100.00,ESE,110,0.0,0.0,100,0.00,,,0.00,0.000000,,2013-02-08 09:52:00,
2013-02-08 02:01:00,21.0,21.0,-100.00,ESE,110,0.0,0.0,100,0.00,,,0.00,0.000000,,2013-02-08 10:01:00,
2013-02-08 02:32:00,19.0,19.0,-100.00,East,93,0.0,0.0,100,0.00,,,0.00,0.000000,,2013-02-08 10:32:00,
2013-02-08 02:42:00,19.0,19.0,-100.00,East,93,0.0,0.0,100,0.00,,,0.00,0.000000,,2013-02-08 10:42:00,
2013-02-08 02:52:00,19.0,19.0,-100.00,East,93,0.0,0.0,100,0.00,,,0.00,0.000000,,2013-02-08 10:52:00,
2013-02-08 03:01:00,19.0,19.0,-100.00,East,93,0.0,0.0,100,0.00,,,0.00,0.000000,,2013-02-08 11:01:00,
2013-02-08 03:32:00,18.0,16.0,-100.00,ENE,73,0.0,0.0,93,0.00,,,0.00,0.000000,,2013-02-08 11:32:00,
2013-02-08 03:42:00,18.0,16.0,-100.00,ENE,73,0.0,0.0,93,0.00,,,0.00,0.000000,,2013-02-08 11:42:00,
2013-02-08 03:52:00,18.0,16.0,-100.00,ENE,73,0.0,0.0,93,0.00,,,0.00,0.000000,,2013-02-08 11:52:00,
2013-02-08 04:01:00,18.0,16.0,-100.00,ENE,73,0.0,0.0,93,0.00,,,0.00,0.000000,,2013-02-08 12:01:00,
2013-02-08 04:33:00,18.0,13.0,-100.00,East,92,0.0,6.0,79,0.00,,,0.00,0.000000,,2013-02-08 12:33:00,
2013-02-08 04:42:00,18.0,13.0,-100.00,East,92,0.0,6.0,79,0.00,,,0.00,0.000000,,2013-02-08 12:42:00,
2013-02-08 04:52:00,18.0,13.0,-100.00,East,92,0.0,6.0,79,0.00,,,0.00,0.000000,,2013-02-08 12:52:00,
2013-02-08 05:01:00,18.0,13.0,-100.00,East,92,0.0,6.0,79,0.00,,,0.00,0.000000,,2013-02-08 13:01:00,
2013-02-08 05:22:00,17.0,15.0,-100.00,East,90,0.0,4.0,93,0.00,,,0.00,0.000000,,2013-02-08 13:22:00,
2013-02-08 05:32:00,17.0,15.0,-100.00,East,90,0.0,4.0,93,0.00,,,0.00,0.000000,,2013-02-08 13:32:00,
2013-02-08 05:42:00,17.0,15.0,-100.00,East,90,0.0,4.0,93,0.00,,,0.00,0.000000,,2013-02-08 13:42:00,
2013-02-08 05:52:00,17.0,15.0,-100.00,East,90,0.0,4.0,93,0.00,,,0.00,0.000000,,2013-02-08 13:52:00,
2013-02-08 06:01:00,17.0,15.0,-100.00,East,90,0.0,4.0,93,0.00,,,0.00,0.000000,,2013-02-08 14:01:00,
2013-02-08 06:32:00,17.0,13.0,-100.00,ESE,103,0.0,0.0,84,0.00,,,0.00,0.000000,,2013-02-08 14:32:00,
2013-02-08 06:42:00,17.0,13.0,-100.00,ESE,103,0.0,0.0,84,0.00,,,0.00,0.000000,,2013-02-08 14:42:00,
2013-02-08 06:52:00,17.0,13.0,-100.00,ESE,103,0.0,0.0,84,0.00,,,0.00,0.000000,,2013-02-08 14:52:00,
2013-02-08 07:01:00,17.0,13.0,-100.00,ESE,103,0.0,0.0,84,0.00,,,0.00,0.000000,,2013-02-08 15:01:00,
2013-02-08 07:32:00,17.0,15.0,-100.00,ESE,103,0.0,0.0,92,0.00,,,0.00,0.000000,,2013-02-08 15:32:00,
2013-02-08 07:42:00,17.0,15.0,-100.00,ESE,103,0.0,0.0,92,0.00,,,0.00,0.000000,,2013-02-08 15:42:00,
2013-02-08 07:52:00,17.0,15.0,-100.00,ESE,103,0.0,0.0,92,0.00,,,0.00,0.000000,,2013-02-08 15:52:00,
2013-02-08 08:01:00,17.0,15.0,-100.00,ESE,103,0.0,0.0,92,0.00,,,0.00,0.000000,,2013-02-08 16:01:00,
2013-02-08 08:02:00,17.0,13.0,-100.00,SE,143,0.0,0.0,85,0.00,,,0.00,19.000000,,2013-02-08 16:02:00,
2013-02-08 08:22:00,17.0,13.0,-100.00,SE,143,0.0,0.0,85,0.00,,,0.00,19.000000,,2013-02-08 16:22:00,
2013-02-08 08:32:00,17.0,13.0,-100.00,SE,143,0.0,0.0,85,0.00,,,0.00,19.000000,,2013-02-08 16:32:00,
2013-02-08 08:42:00,17.0,13.0,-100.00,SE,143,0.0,0.0,85,0.00,,,0.00,19.000000,,2013-02-08 16:42:00,
2013-02-08 08:52:00,17.0,13.0,-100.00,SE,143,0.0,0.0,85,0.00,,,0.00,19.000000,,2013-02-08 16:52:00,
2013-02-08 09:33:00,22.0,16.0,-100.00,West,274,0.0,0.0,76,0.00,,,0.00,81.000000,,2013-02-08 17:33:00,
2013-02-08 09:42:00,22.0,16.0,-100.00,West,274,0.0,0.0,76,0.00,,,0.00,81.000000,,2013-02-08 17:42:00,
2013-02-08 09:52:00,22.0,16.0,-100.00,West,274,0.0,0.0,76,0.00,,,0.00,81.000000,,2013-02-08 17:52:00,
2013-02-08 10:01:00,22.0,16.0,-100.00,West,274,0.0,0.0,76,0.00,,,0.00,81.000000,,2013-02-08 18:01:00,
2013-02-08 10:36:00,30.0,19.0,-100.00,SSW,201,0.0,0.0,62,0.00,,,0.00,124.000000,,2013-02-08 18:36:00,
2013-02-08 10:44:00,30.0,19.0,-100.00,SSW,201,0.0,0.0,62,0.00,,,0.00,124.000000,,2013-02-08 18:44:00,
2013-02-08 10:52:00,30.0,19.0,-100.00,SSW,201,0.0,0.0,62,0.00,,,0.00,124.000000,,2013-02-08 18:52:00,
2013-02-08 11:01:00,30.0,19.0,-100.00,SSW,201,0.0,0.0,62,0.00,,,0.00,124.000000,,2013-02-08 19:01:00,
2013-02-08 11:22:00,32.0,15.0,-100.00,NW,317,1.0,6.0,50,0.00,,,0.00,255.000000,,2013-02-08 19:22:00,
2013-02-08 11:33:00,32.0,15.0,-100.00,NW,317,1.0,6.0,50,0.00,,,0.00,255.000000,,2013-02-08 19:33:00,
2013-02-08 11:42:00,32.0,15.0,-100.00,NW,317,1.0,6.0,50,0.00,,,0.00,255.000000,,2013-02-08 19:42:00,
2013-02-08 11:52:00,32.0,15.0,-100.00,NW,317,1.0,6.0,50,0.00,,,0.00,255.000000,,2013-02-08 19:52:00,
2013-02-08 12:01:00,32.0,15.0,-100.00,NW,317,1.0,6.0,50,0.00,,,0.00,255.000000,,2013-02-08 20:01:00,
2013-02-08 12:22:00,39.0,20.0,-100.00,NW,306,0.0,8.0,47,0.00,,,0.00,425.000000,,2013-02-08 20:22:00,
2013-02-08 12:32:00,39.0,20.0,-100.00,NW,306,0.0,8.0,47,0.00,,,0.00,425.000000,,2013-02-08 20:32:00,
2013-02-08 12:42:00,39.0,20.0,-100.00,NW,306,0.0,8.0,47,0.00,,,0.00,425.000000,,2013-02-08 20:42:00,
2013-02-08 12:52:00,39.0,20.0,-100.00,NW,306,0.0,8.0,47,0.00,,,0.00,425.000000,,2013-02-08 20:52:00,
2013-02-08 13:01:00,39.0,20.0,-100.00,NW,306,0.0,8.0,47,0.00,,,0.00,425.000000,,2013-02-08 21:01:00,
2013-02-08 13:33:00,36.0,16.0,-100.00,NNW,330,1.0,9.0,43,0.02,,,0.02,507.000000,,2013-02-08 21:33:00,
2013-02-08 13:42:00,36.0,16.0,-100.00,NNW,330,1.0,9.0,43,0.02,,,0.02,507.000000,,2013-02-08 21:42:00,
2013-02-08 13:52:00,36.0,16.0,-100.00,NNW,330,1.0,9.0,43,0.02,,,0.02,507.000000,,2013-02-08 21:52:00,
2013-02-08 14:01:00,36.0,16.0,-100.00,NNW,330,1.0,9.0,43,0.02,,,0.02,507.000000,,2013-02-08 22:01:00,
2013-02-08 14:22:00,34.0,18.0,-100.00,NW,314,2.0,8.0,52,0.03,,,0.05,258.000000,,2013-02-08 22:22:00,
2013-02-08 14:32:00,34.0,18.0,-100.00,NW,314,2.0,8.0,52,0.03,,,0.05,258.000000,,2013-02-08 22:32:00,
2013-02-08 14:42:00,34.0,18.0,-100.00,NW,314,2.0,8.0,52,0.03,,,0.05,258.000000,,2013-02-08 22:42:00,
2013-02-08 14:52:00,34.0,18.0,-100.00,NW,314,2.0,8.0,52,0.03,,,0.05,258.000000,,2013-02-08 22:52:00,
2013-02-08 15:01:00,34.0,18.0,-100.00,NW,314,2.0,8.0,52,0.03,,,0.05,258.000000,,2013-02-08 23:01:00,
2013-02-08 15:32:00,34.0,19.0,-100.00,NW,318,1.0,8.0,54,0.01,,,0.06,300.000000,,2013-02-08 23:32:00,
2013-02-08 15:42:00,34.0,19.0,-100.00,NW,318,1.0,8.0,54,0.01,,,0.06,300.000000,,2013-02-08 23:42:00,
2013-02-08 15:52:00,34.0,19.0,-100.00,NW,318,1.0,8.0,54,0.01,,,0.06,300.000000,,2013-02-08 23:52:00,
2013-02-08 16:01:00,34.0,19.0,-100.00,NW,318,1.0,8.0,54,0.01,,,0.06,300.000000,,2013-02-09 00:01:00,
2013-02-08 16:32:00,32.0,19.0,-100.00,NW,313,1.0,7.0,59,0.01,,,0.07,200.000000,,2013-02-09 00:32:00,
2013-02-08 16:42:00,32.0,19.0,-100.00,NW,313,1.0,7.0,59,0.01,,,0.07,200.000000,,2013-02-09 00:42:00,
2013-02-08 16:52:00,32.0,19.0,-100.00,NW,313,1.0,7.0,59,0.01,,,0.07,200.000000,,2013-02-09 00:52:00,
2013-02-08 17:01:00,32.0,19.0,-100.00,NW,313,1.0,7.0,59,0.01,,,0.07,200.000000,,2013-02-09 01:01:00,
2013-02-08 17:22:00,32.0,19.0,-100.00,WNW,302,0.0,6.0,59,0.00,,,-99.99,103.000000,,2013-02-09 01:22:00,
2013-02-08 17:32:00,32.0,19.0,-100.00,WNW,302,0.0,6.0,59,0.00,,,-99.99,103.000000,,2013-02-09 01:32:00,
2013-02-08 17:42:00,32.0,19.0,-100.00,WNW,302,0.0,6.0,59,0.00,,,-99.99,103.000000,,2013-02-09 01:42:00,
2013-02-08 17:52:00,32.0,19.0,-100.00,WNW,302,0.0,6.0,59,0.00,,,-99.99,103.000000,,2013-02-09 01:52:00,
2013-02-08 18:01:00,32.0,19.0,-100.00,WNW,302,0.0,6.0,59,0.00,,,-99.99,103.000000,,2013-02-09 02:01:00,
2013-02-08 18:32:00,30.0,20.0,-100.00,WSW,255,0.0,0.0,66,0.00,,,0.07,18.000000,,2013-02-09 02:32:00,
2013-02-08 18:42:00,30.0,20.0,-100.00,WSW,255,0.0,0.0,66,0.00,,,0.07,18.000000,,2013-02-09 02:42:00,
2013-02-08 18:52:00,30.0,20.0,-100.00,WSW,255,0.0,0.0,66,0.00,,,0.07,18.000000,,2013-02-09 02:52:00,
2013-02-08 19:01:00,30.0,20.0,-100.00,WSW,255,0.0,0.0,66,0.00,,,0.07,18.000000,,2013-02-09 03:01:00,
2013-02-08 19:02:00,29.0,25.0,-100.00,SW,230,0.0,0.0,84,0.00,,,-99.99,0.000000,,2013-02-09 03:02:00,
2013-02-08 19:32:00,29.0,25.0,-100.00,SW,230,0.0,0.0,84,0.00,,,-99.99,0.000000,,2013-02-09 03:32:00,
2013-02-08 19:42:00,29.0,25.0,-100.00,SW,230,0.0,0.0,84,0.00,,,-99.99,0.000000,,2013-02-09 03:42:00,
2013-02-08 19:52:00,29.0,25.0,-100.00,SW,230,0.0,0.0,84,0.00,,,-99.99,0.000000,,2013-02-09 03:52:00,
2013-02-08 20:02:00,27.0,27.0,-100.00,ENE,70,0.0,0.0,100,0.00,,,0.07,0.000000,,2013-02-09 04:02:00,
2013-02-08 20:23:00,27.0,27.0,-100.00,ENE,70,0.0,0.0,100,0.00,,,0.07,0.000000,,2013-02-09 04:23:00,
2013-02-08 20:32:00,27.0,27.0,-100.00,ENE,70,0.0,0.0,100,0.00,,,0.07,0.000000,,2013-02-09 04:32:00,
2013-02-08 20:42:00,27.0,27.0,-100.00,ENE,70,0.0,0.0,100,0.00,,,0.07,0.000000,,2013-02-09 04:42:00,
2013-02-08 20:52:00,27.0,27.0,-100.00,ENE,70,0.0,0.0,100,0.00,,,0.07,0.000000,,2013-02-09 04:52:00,
2013-02-08 21:32:00,25.0,17.0,-100.00,ENE,78,0.0,2.0,70,0.00,,,0.07,0.000000,,2013-02-09 05:32:00,
2013-02-08 21:42:00,25.0,17.0,-100.00,ENE,78,0.0,2.0,70,0.00,,,0.07,0.000000,,2013-02-09 05:42:00,
2013-02-08 21:52:00,25.0,17.0,-100.00,ENE,78,0.0,2.0,70,0.00,,,0.07,0.000000,,2013-02-09 05:52:00,
2013-02-08 22:01:00,25.0,17.0,-100.00,ENE,78,0.0,2.0,70,0.00,,,0.07,0.000000,,2013-02-09 06:01:00,
2013-02-08 22:32:00,24.0,13.0,-100.00,NE,56,0.0,5.0,62,0.00,,,0.07,0.000000,,2013-02-09 06:32:00,
2013-02-08 22:42:00,24.0,13.0,-100.00,NE,56,0.0,5.0,62,0.00,,,0.07,0.000000,,2013-02-09 06:42:00,
2013-02-08 22:52:00,24.0,13.0,-100.00,NE,56,0.0,5.0,62,0.00,,,0.07,0.000000,,2013-02-09 06:52:00,
2013-02-08 23:01:00,24.0,13.0,-100.00,NE,56,0.0,5.0,62,0.00,,,0.07,0.000000,,2013-02-09 07:01:00,
2013-02-08 23:22:00,22.0,12.0,-100.00,NE,36,0.0,4.0,65,0.00,,,-99.99,0.000000,,2013-02-09 07:22:00,
2013-02-08 23:32:00,22.0,12.0,-100.00,NE,36,0.0,4.0,65,0.00,,,-99.99,0.000000,,2013-02-09 07:32:00,
2013-02-08 23:42:00,22.0,12.0,-100.00,NE,36,0.0,4.0,65,0.00,,,-99.99,0.000000,,2013-02-09 07:42:00,
2013-02-08 23:52:00,22.0,12.0,-100.00,NE,36,0.0,4.0,65,0.00,,,-99.99,0.000000,,2013-02-09 07:52:00,